Palma De Mallorca, Spain

2:52 AM CET on February 07, 2016 (GMT +0100)
Palma De Mallorca

Weather History for LEPA - October, 2013

Change the Weather History Date:

Saturday, October 19, 2013

  Actual Average Record
Temperature  
Mean Temperature 71 °F -  
Max Temperature 81 °F 67 °F 92 °F (2014)
Min Temperature 61 °F 49 °F 35 °F (1996)
Cooling Degree Days 6    
Growing Degree Days 21 (Base 50)    
Moisture  
Dew Point 65 °F    
Average Humidity 81    
Maximum Humidity 94    
Minimum Humidity 51    
Precipitation  
Precipitation 0.00 in 0.07 in - ()
Sea Level Pressure  
Sea Level Pressure 30.02 in    
Wind  
Wind Speed 4 mph ()    
Max Wind Speed 12 mph    
Max Gust Speed -    
Visibility 6.6 miles    
Events      
Averages and records for this station are not official NWS values.
T = Trace of Precipitation, MM = Missing Value Source: Averaged Metar Reports

Daily Weather History Graph

Daily Weather History Graph

Search for Another Location

Airport or City:

Trip Planner

Search our weather history database for the weather conditions in past years. The results will help you decide how hot, cold, wet, or windy it might be!

Date:

Astronomy

Oct. 19, 2013 Rise Set
Actual Time 8:03 AM CEST 7:04 PM CEST
Civil Twilight 7:36 AM CEST 7:31 PM CEST
Nautical Twilight 7:04 AM CEST 8:02 PM CEST
Astronomical Twilight 6:33 AM CEST 8:33 PM CEST
Moon 7:22 PM CEST (10/19) 8:24 AM CEST (10/19)
Length of Visible Light 11h 55m
Length of Day
11h 00m
Full, 100% of the Moon is Illuminated
Oct 19
Full
Oct 27
Last Quarter
Nov 3
New
Nov 10
First Quarter
Nov 17
Full

Hourly Weather History & Observations

Time (CEST) Temp. Heat Index Dew Point Humidity Pressure Visibility Wind Dir Wind Speed Gust Speed Precip Events Conditions
12:00 AM 62.6 °F - 60.8 °F 94% 30.01 in 6.2 mi NE 4.6 mph - N/A   Partly Cloudy
12:30 AM 64.4 °F - 60.8 °F 88% 30.01 in 6.2 mi ENE 3.5 mph - N/A   Partly Cloudy
1:00 AM 64.4 °F - 60.8 °F 88% 30.01 in 6.2 mi NE 3.5 mph - N/A   Partly Cloudy
1:30 AM 62.6 °F - 60.8 °F 94% 30.01 in 6.2 mi ENE 3.5 mph - N/A   Partly Cloudy
2:00 AM 62 °F - 60 °F 91% 30.02 in 9 mi ENE 2.3 mph - -   Partly Cloudy
2:00 AM 62.6 °F - 60.8 °F 94% 30.01 in 6.2 mi ENE 4.6 mph - N/A   Scattered Clouds
2:30 AM 62.6 °F - 60.8 °F 94% 30.01 in 6.2 mi NE 4.6 mph - N/A   Scattered Clouds
3:00 AM 64.4 °F - 62.6 °F 94% 30.01 in 6.2 mi ENE 2.3 mph - N/A   Mostly Cloudy
3:30 AM 64.4 °F - 62.6 °F 94% 30.01 in 6.2 mi Variable 2.3 mph - N/A   Mostly Cloudy
4:00 AM 66.2 °F - 64.4 °F 94% 29.98 in 6.2 mi ENE 3.5 mph - N/A   Mostly Cloudy
4:30 AM 66.2 °F - 64.4 °F 94% 29.98 in 6.2 mi ENE 3.5 mph - N/A   Mostly Cloudy
5:00 AM 66.2 °F - 64.4 °F 94% 29.98 in 6.2 mi ENE 2.3 mph - N/A   Mostly Cloudy
5:30 AM 66.2 °F - 64.4 °F 94% 29.98 in 6.2 mi East 2.3 mph - N/A   Mostly Cloudy
6:00 AM 66.2 °F - 62.6 °F 88% 29.98 in 6.2 mi ENE 3.5 mph - N/A   Mostly Cloudy
6:30 AM 66.2 °F - 62.6 °F 88% 29.98 in 6.2 mi ENE 3.5 mph - N/A   Mostly Cloudy
7:00 AM 66.2 °F - 62.6 °F 88% 29.98 in 6.2 mi East 3.5 mph - N/A   Mostly Cloudy
7:30 AM 66.2 °F - 62.6 °F 88% 30.01 in 6.2 mi ENE 2.3 mph - N/A   Mostly Cloudy
8:00 AM 66 °F - 63 °F 88% 30.01 in 12 mi WNW 1.2 mph - -   Mostly Cloudy
8:00 AM 66.2 °F - 62.6 °F 88% 30.01 in 6.2 mi Variable 1.2 mph - N/A   Mostly Cloudy
8:30 AM 68.0 °F - 64.4 °F 88% 30.01 in 6.2 mi Variable 1.2 mph - N/A   Mostly Cloudy
9:00 AM 68.0 °F - 64.4 °F 88% 30.01 in 6.2 mi Variable 2.3 mph - N/A   Scattered Clouds
9:30 AM 69.8 °F - 64.4 °F 83% 30.04 in 5.0 mi Variable 2.3 mph - N/A   Scattered Clouds
10:00 AM 73.4 °F - 66.2 °F 78% 30.04 in 6.2 mi Variable 2.3 mph - N/A   Mostly Cloudy
10:30 AM 73.4 °F - 66.2 °F 78% 30.04 in 6.2 mi ENE 5.8 mph - N/A   Scattered Clouds
11:00 AM 77.0 °F - 66.2 °F 69% 30.04 in 6.2 mi ENE 4.6 mph - N/A   Partly Cloudy
11:30 AM 77.0 °F - 66.2 °F 69% 30.04 in 6.2 mi Calm Calm - N/A   Mostly Cloudy
12:00 PM 77.0 °F - 66.2 °F 69% 30.04 in 6.2 mi ESE 1.2 mph - N/A   Scattered Clouds
12:30 PM 78.8 °F - 66.2 °F 65% 30.04 in 6.2 mi South 3.5 mph - N/A   Scattered Clouds
1:00 PM 78.8 °F - 68.0 °F 69% 30.04 in 6.2 mi WSW 5.8 mph - N/A   Scattered Clouds
1:30 PM 78.8 °F - 66.2 °F 65% 30.04 in 6.2 mi WSW 6.9 mph - N/A   Scattered Clouds
2:00 PM 81 °F - 66 °F 51% 30.03 in 16 mi SW 8.1 mph - -   Scattered Clouds
2:00 PM 78.8 °F - 68.0 °F 69% 30.04 in 6.2 mi WSW 8.1 mph - N/A   Partly Cloudy
2:30 PM 78.8 °F - 66.2 °F 65% 30.01 in 6.2 mi SW 8.1 mph - N/A   Partly Cloudy
3:00 PM 80.6 °F 83.2 °F 68.0 °F 65% 30.01 in 6.2 mi SW 8.1 mph - N/A   Partly Cloudy
3:30 PM 78.8 °F - 68.0 °F 69% 30.01 in 6.2 mi WSW 10.4 mph - N/A   Partly Cloudy
4:00 PM 78.8 °F - 68.0 °F 69% 30.01 in 6.2 mi WSW 11.5 mph - N/A   Partly Cloudy
4:30 PM 77.0 °F - 68.0 °F 74% 30.01 in 6.2 mi WSW 9.2 mph - N/A   Partly Cloudy
5:00 PM 77.0 °F - 66.2 °F 69% 30.01 in 6.2 mi WSW 6.9 mph - N/A   Partly Cloudy
5:30 PM 77.0 °F - 66.2 °F 69% 30.01 in 6.2 mi WSW 6.9 mph - N/A   Partly Cloudy
6:00 PM 77.0 °F - 68.0 °F 74% 30.01 in 6.2 mi SW 6.9 mph - N/A   Partly Cloudy
6:30 PM 75.2 °F - 68.0 °F 78% 30.01 in 6.2 mi SW 5.8 mph - N/A   Partly Cloudy
7:00 PM 75.2 °F - 68.0 °F 78% 30.01 in 6.2 mi SW 5.8 mph - N/A   Partly Cloudy
7:30 PM 75.2 °F - 68.0 °F 78% 30.01 in 6.2 mi SW 3.5 mph - N/A   Partly Cloudy
8:00 PM 74 °F - 68 °F 75% 30.04 in 12 mi SSW 4.6 mph - -   Scattered Clouds
8:00 PM 75.2 °F - 68.0 °F 78% 30.04 in 6.2 mi SSW 1.2 mph - N/A   Partly Cloudy
8:30 PM 75.2 °F - 68.0 °F 78% 30.04 in 6.2 mi SSW 1.2 mph - N/A   Scattered Clouds
9:00 PM 75.2 °F - 68.0 °F 78% 30.04 in 6.2 mi Calm Calm - N/A   Mostly Cloudy
9:30 PM 73.4 °F - 68.0 °F 83% 30.04 in 6.2 mi Variable 1.2 mph - N/A   Mostly Cloudy
10:00 PM 71.6 °F - 66.2 °F 83% 30.04 in 6.2 mi Calm Calm - N/A   Scattered Clouds
10:30 PM 71.6 °F - 66.2 °F 83% 30.04 in 6.2 mi East 1.2 mph - N/A   Scattered Clouds
11:00 PM 71.6 °F - 66.2 °F 83% 30.06 in 6.2 mi East 2.3 mph - N/A   Scattered Clouds
11:30 PM 69.8 °F - 66.2 °F 88% 30.06 in 6.2 mi Calm Calm - N/A   Scattered Clouds